Wind_Speed
59 65 70 75 77 70 63 63 59 59 57 61 66 70 75 62 27 16 16 18 18 17 13 11 15 29 28 39 54 64 60 61 57 52 49 45 45 48 47 48 47 52 52 43 54 49 50
59 66 71 76 76 67 61 60 57 58 55 59 60 69 78 67 25 16 18 20 14 10 9 12 14 35 30 33 34 53 62 60 55 53 49 44 41 45 46 47 46 45 52 49 56 57 51
57 64 70 75 75 66 60 58 54 55 54 54 58 66 72 77 55 18 18 14 10 5 1 5 3 25 30 40 27 40 54 58 53 49 48 45 43 44 47 46 47 48 48 51 42 62 55
57 63 68 74 75 64 57 56 51 51 53 55 53 66 68 70 74 28 16 11 10 4 2 6 5 15 31 34 28 38 50 53 50 48 46 45 44 43 45 45 46 49 45 52 42 43 45
58 63 67 73 75 62 57 55 47 47 51 52 51 61 68 66 68 49 16 8 8 6 5 7 4 20 41 29 35 40 51 56 40 38 48 51 44 42 43 44 45 47 44 40 47 37 35
58 62 67 72 73 64 55 54 47 45 46 49 47 54 60 57 57 61 34 14 12 9 4 5 9 23 34 31 36 46 54 57 48 46 32 37 42 42 41 42 41 38 35 37 38 46 36
56 61 67 73 74 70 56 52 45 42 40 44 44 50 51 45 57 66 53 34 20 14 14 14 21 21 27 26 31 51 47 50 43 35 42 36 38 36 34 36 37 36 37 39 35 38 42
55 59 65 70 72 70 55 52 45 41 37 41 42 44 42 34 48 58 56 40 26 26 24 25 27 23 21 28 44 51 61 51 54 38 34 33 34 33 33 32 35 37 36 35 38 37 38
53 57 63 67 70 69 61 53 48 40 34 36 38 40 38 34 40 50 41 38 35 31 33 31 26 26 48 45 36 45 52 42 42 28 35 31 30 32 32 29 31 34 35 36 37 36 36
55 55 61 65 70 70 65 50 49 38 32 34 34 35 37 31 35 38 29 31 34 32 37 46 47 39 31 26 21 31 44 47 38 30 31 25 27 28 26 25 25 26 34 41 41 35 34
53 54 57 63 67 69 67 51 44 42 33 28 29 28 31 34 38 33 32 32 27 29 28 28 29 34 29 19 31 47 40 32 28 23 26 26 26 24 24 24 27 29 33 42 44 43 42
47 51 56 60 65 68 67 52 42 43 31 24 23 21 23 27 30 26 28 33 29 24 25 21 25 20 24 24 31 35 27 28 28 25 23 24 25 25 25 26 27 29 35 36 43 48 48
45 48 53 59 63 66 67 62 38 44 34 22 18 13 13 18 21 20 22 26 32 32 28 23 29 25 26 26 33 30 28 25 26 24 22 20 23 23 25 27 27 26 29 32 37 47 47
45 46 48 55 59 64 66 61 48 37 37 24 16 11 5 9 16 16 18 21 18 25 21 28 21 13 12 19 31 19 16 20 24 27 23 26 28 29 29 26 30 28 23 23 27 33 38
40 43 45 52 56 61 67 64 58 37 35 28 17 11 6 4 8 5 10 13 16 15 10 3 10 17 14 20 15 11 13 25 26 26 26 26 24 20 26 24 27 31 26 26 26 26 33
36 40 42 48 52 57 63 64 60 39 32 32 21 11 11 9 7 9 4 4 10 15 12 12 11 11 13 13 13 18 17 24 17 21 24 25 20 14 18 22 24 26 29 28 31 31 29
33 38 40 43 48 52 60 65 64 53 30 30 24 16 12 13 11 10 12 9 6 9 6 6 7 8 7 7 10 14 14 12 9 17 22 21 19 21 19 25 23 27 32 34 33 28 26
32 37 42 40 44 50 57 63 66 59 36 26 28 18 14 13 15 13 13 15 13 10 6 2 2 3 5 4 4 5 7 8 6 4 9 15 17 17 21 18 21 21 24 30 33 27 26
32 37 39 40 43 50 56 62 64 62 39 24 29 18 16 15 15 15 17 16 17 14 9 5 3 2 1 2 4 4 5 5 7 10 14 15 14 14 18 19 16 17 17 18 21 23 26
32 37 39 44 43 46 55 59 65 63 52 20 28 19 19 18 17 20 17 15 17 16 12 10 8 6 4 4 3 6 7 6 7 8 12 15 17 18 17 17 20 18 20 18 25 24 20
34 38 39 41 41 46 53 59 62 64 55 26 27 19 17 22 20 18 16 14 15 15 14 12 12 9 8 6 5 7 9 9 9 10 10 10 16 20 18 17 18 19 22 19 21 18 25
33 34 35 37 37 43 51 58 62 65 58 40 26 24 17 23 25 23 18 14 12 14 14 13 13 12 11 9 7 8 9 9 9 10 11 12 11 11 16 18 20 19 20 23 22 22 23
35 34 34 36 39 45 51 61 61 64 56 36 27 27 19 19 29 29 23 19 16 11 12 12 12 13 13 12 12 10 11 10 12 11 11 12 13 14 13 15 17 15 17 19 22 25 28
38 34 35 39 42 46 50 58 63 64 55 34 27 26 20 18 25 30 28 26 20 18 13 11 8 6 7 7 9 11 12 12 12 12 12 12 13 13 14 15 16 14 15 16 16 19 24
40 39 40 42 45 49 52 57 63 64 59 41 26 24 15 16 19 29 30 34 30 27 21 18 15 11 8 6 5 6 7 8 9 11 12 12 12 12 12 13 13 13 14 14 15 16 14
39 42 42 44 46 49 51 57 64 65 59 40 30 24 15 15 22 22 31 34 36 32 30 24 22 19 17 16 13 9 8 8 9 9 9 9 10 11 12 12 13 10 12 11 10 12 16
39 40 41 45 46 46 52 58 64 64 57 39 31 19 15 15 20 23 25 35 36 36 34 32 28 27 26 24 23 19 16 14 12 11 11 13 12 11 12 12 12 11 13 13 12 11 11
41 40 42 48 48 47 54 59 64 62 54 42 34 26 19 17 18 25 24 29 35 36 36 31 32 31 28 24 22 20 18 17 16 15 15 15 14 14 16 13 12 13 13 14 14 14 14
40 42 42 49 50 50 53 61 63 57 43 40 33 30 19 19 19 20 23 29 36 31 36 33 31 29 26 22 20 20 18 18 17 15 15 18 18 16 15 15 16 18 17 17 17 16 17
Wind_Direction
353 351 343 343 348 351 348 344 347 345 346 346 348 355 356 355 339 319 315 312 307 284 265 276 249 208 197 201 222 217 211 213 208 209 215 212 215 217 219 219 218 218 221 229 226 211 196
354 351 345 345 350 352 350 346 348 348 350 353 358 3 4 5 354 334 323 326 310 270 250 267 239 205 198 184 208 215 211 211 208 203 210 210 213 217 216 218 218 218 218 219 224 217 213
353 351 348 345 353 354 351 348 350 350 352 357 359 6 8 8 6 338 325 348 348 265 167 225 217 209 188 184 193 193 196 202 205 203 208 209 211 214 216 214 215 217 220 217 223 232 230
352 348 347 346 352 355 352 348 351 351 354 359 3 9 8 6 5 359 336 347 10 88 268 300 250 194 193 181 182 176 187 192 200 203 206 208 209 213 216 214 216 220 220 224 213 230 233
353 350 346 346 352 357 354 349 352 353 355 4 11 11 8 9 6 12 360 9 8 353 315 306 259 185 176 160 165 167 172 177 168 193 212 211 207 212 215 215 217 222 221 228 223 223 222
352 349 346 346 352 358 356 349 352 353 357 6 13 11 12 14 20 20 23 39 35 28 29 68 124 166 180 178 158 161 164 179 190 192 190 192 202 209 214 216 223 230 230 230 230 231 223
350 347 344 346 352 355 357 350 353 353 358 6 11 12 14 23 31 24 25 39 42 52 83 90 121 137 156 173 171 154 154 173 181 181 199 202 210 212 214 214 215 218 220 225 226 231 235
349 348 347 346 351 354 357 350 353 355 358 5 10 12 18 19 14 15 21 29 52 70 80 110 120 131 138 147 151 151 160 163 179 162 178 185 194 202 206 208 213 219 221 224 226 227 235
350 347 347 345 350 355 359 352 351 355 358 6 9 12 18 15 2 9 35 56 70 78 99 104 98 114 128 120 134 153 173 176 171 167 186 195 193 198 206 208 215 220 221 226 228 227 235
348 349 348 345 347 351 355 352 349 353 358 2 9 12 14 14 13 25 41 46 69 87 102 108 108 111 102 104 142 173 160 178 181 194 173 166 185 198 204 211 218 224 226 225 228 228 232
345 348 345 344 344 347 355 355 348 350 357 357 12 16 18 17 30 41 51 47 71 76 88 85 61 112 93 99 123 140 140 166 161 170 174 191 193 195 205 211 222 225 228 229 230 234 237
345 344 342 341 342 345 351 357 349 346 352 354 12 19 28 22 34 43 52 45 53 66 72 65 74 67 94 136 149 146 140 156 154 161 169 177 190 202 207 214 223 225 229 231 230 233 237
344 342 345 341 342 343 347 355 354 345 349 352 358 21 37 12 16 42 50 54 54 62 93 63 66 99 113 133 145 157 167 170 183 189 189 197 209 216 219 220 221 225 229 235 238 239 237
341 341 344 343 344 340 344 350 3 348 343 345 339 3 32 357 15 56 62 54 47 47 84 73 78 86 136 138 143 137 177 190 188 198 210 218 219 221 216 217 220 225 227 243 250 251 245
336 344 341 342 346 341 341 345 349 1 339 345 334 324 325 295 349 10 47 62 55 43 85 83 54 98 112 154 150 154 165 200 199 204 208 210 203 207 213 221 213 214 255 244 242 257 243
330 343 337 340 346 341 338 341 347 356 342 341 329 306 296 295 292 280 301 52 58 52 49 61 62 78 91 106 106 128 137 179 187 189 193 200 204 221 221 220 226 240 228 231 252 251 249
326 339 333 337 347 340 336 337 342 347 348 335 331 302 286 278 274 266 265 279 301 350 38 57 66 68 75 73 95 126 139 158 170 192 204 214 218 216 233 233 238 233 234 243 245 242 238
317 330 325 331 341 340 335 333 336 342 351 331 333 295 276 276 265 258 257 262 278 292 322 14 348 107 116 97 118 140 159 196 209 190 193 203 218 233 218 212 235 232 238 250 241 231 229
312 321 329 331 332 332 331 330 333 339 344 334 327 303 270 265 257 259 258 258 264 271 281 286 288 274 248 162 166 179 181 194 193 206 213 219 222 222 220 234 234 234 243 249 238 236 230
307 311 319 323 329 327 325 326 328 332 341 334 326 317 268 255 256 263 265 263 260 260 264 265 274 277 250 250 242 211 207 216 214 213 218 228 236 233 230 235 241 243 238 232 240 254 239
302 307 314 320 328 325 321 321 325 330 338 342 320 318 274 251 249 253 261 262 257 254 258 259 264 277 283 275 257 221 219 220 223 228 235 234 233 236 238 243 247 251 244 239 242 250 230
302 307 316 323 327 327 321 318 323 325 331 340 322 317 296 246 243 248 247 259 256 257 254 250 254 263 271 279 261 240 233 230 235 232 232 236 244 246 238 245 249 247 248 256 250 242 245
291 306 314 324 326 318 317 316 320 325 328 340 319 308 305 267 242 241 245 247 252 249 249 247 251 258 259 254 256 250 238 232 236 235 236 235 237 246 253 250 243 243 254 244 239 241 245
295 303 314 314 318 319 316 313 315 321 328 329 314 306 304 291 253 241 241 245 246 242 228 221 216 223 240 247 246 244 244 242 247 244 242 243 245 249 247 250 249 257 256 255 242 238 243
292 297 301 313 325 320 312 311 313 317 322 327 303 305 307 291 275 243 238 240 239 240 236 233 233 238 243 242 260 247 237 236 242 240 240 246 244 248 247 249 251 251 250 252 248 240 240
294 299 303 308 319 320 311 309 311 316 324 326 316 305 308 286 269 260 239 237 238 240 240 242 245 248 250 256 259 261 250 238 243 245 246 250 252 248 245 240 250 250 244 249 244 245 240
292 300 308 314 319 318 311 308 310 317 325 326 319 318 310 302 277 264 249 236 237 238 240 241 247 250 255 260 263 259 256 257 252 251 249 249 251 255 256 251 251 241 233 240 250 259 261
287 295 307 318 323 318 310 308 310 314 322 327 327 324 314 299 289 273 260 241 233 239 240 240 242 249 253 256 253 248 245 249 249 246 253 258 260 258 260 259 253 253 250 245 245 250 255
293 293 300 314 326 322 311 309 314 318 323 329 321 323 309 290 291 294 264 239 231 238 237 236 238 239 239 239 243 244 241 243 247 251 248 254 259 256 263 264 261 256 253 254 252 252 254
Height
5774 5761 5747 5734 5722 5709 5695 5683 5673 5661 5649 5634 5617 5599 5579 5559 5547 5544 5542 5540 5538 5538 5538 5538 5539 5543 5549 5558 5571 5590 5609 5622 5636 5654 5666 5677 5685 5695 5705 5714 5720 5731 5738 5743 5748 5757 5767
5771 5758 5745 5731 5719 5706 5694 5679 5669 5658 5645 5632 5614 5596 5576 5557 5547 5542 5540 5536 5533 5533 5534 5534 5536 5538 5545 5555 5564 5580 5603 5618 5635 5647 5660 5672 5683 5690 5696 5704 5714 5724 5729 5730 5734 5751 5755
5768 5755 5742 5728 5715 5702 5690 5677 5666 5657 5644 5630 5614 5597 5579 5562 5548 5542 5538 5534 5530 5531 5532 5532 5533 5535 5544 5553 5560 5574 5595 5615 5630 5643 5656 5668 5675 5684 5691 5698 5707 5711 5716 5728 5732 5745 5754
5765 5753 5741 5726 5713 5700 5688 5675 5664 5656 5644 5629 5616 5600 5584 5568 5551 5539 5536 5534 5531 5530 5531 5531 5532 5534 5540 5552 5560 5573 5591 5612 5630 5640 5651 5660 5669 5678 5687 5698 5703 5706 5715 5719 5734 5739 5750
5764 5752 5739 5726 5711 5697 5687 5676 5664 5655 5645 5632 5619 5607 5590 5576 5559 5543 5534 5533 5532 5531 5530 5529 5529 5532 5541 5550 5561 5572 5589 5612 5626 5637 5646 5654 5665 5676 5685 5692 5699 5701 5713 5722 5731 5737 5743
5763 5750 5737 5724 5711 5696 5686 5676 5665 5656 5647 5636 5624 5614 5600 5586 5571 5554 5540 5536 5533 5531 5530 5529 5529 5536 5543 5553 5562 5572 5588 5611 5626 5636 5639 5652 5661 5672 5682 5692 5701 5711 5717 5720 5726 5733 5737
5761 5749 5736 5724 5711 5698 5686 5675 5666 5657 5650 5639 5630 5620 5608 5595 5581 5568 5555 5544 5539 5536 5533 5534 5536 5542 5548 5557 5568 5579 5598 5613 5631 5634 5640 5650 5663 5676 5685 5689 5695 5700 5704 5711 5719 5725 5727
5760 5748 5736 5723 5711 5699 5686 5675 5666 5659 5652 5643 5634 5626 5615 5604 5591 5582 5571 5559 5550 5544 5542 5541 5545 5550 5555 5561 5572 5583 5598 5613 5623 5627 5640 5652 5663 5672 5678 5685 5690 5696 5702 5709 5711 5718 5722
5758 5748 5736 5722 5711 5699 5688 5677 5667 5660 5654 5647 5638 5631 5622 5612 5601 5594 5590 5577 5565 5557 5554 5553 5555 5558 5564 5572 5586 5594 5603 5614 5626 5632 5641 5652 5663 5669 5676 5682 5688 5694 5702 5704 5708 5715 5720
5757 5747 5735 5722 5711 5699 5688 5677 5669 5661 5656 5650 5642 5634 5628 5620 5613 5604 5599 5593 5584 5577 5570 5569 5571 5576 5581 5585 5591 5598 5610 5621 5629 5632 5643 5651 5660 5668 5675 5681 5686 5691 5696 5698 5702 5711 5716
5756 5746 5735 5722 5711 5699 5688 5679 5669 5662 5657 5653 5646 5639 5633 5626 5620 5614 5609 5602 5597 5592 5586 5587 5587 5591 5593 5597 5603 5607 5618 5627 5633 5638 5646 5655 5661 5667 5673 5678 5682 5688 5689 5693 5699 5705 5709
5754 5744 5732 5721 5710 5698 5687 5680 5670 5663 5657 5654 5650 5643 5638 5635 5628 5623 5616 5612 5607 5604 5597 5598 5599 5598 5601 5605 5610 5619 5621 5629 5636 5643 5648 5654 5660 5665 5670 5673 5678 5682 5685 5689 5693 5695 5696
5751 5742 5731 5719 5709 5698 5687 5679 5672 5665 5658 5653 5651 5647 5641 5639 5635 5630 5625 5621 5621 5613 5612 5610 5609 5608 5610 5613 5620 5624 5628 5633 5638 5644 5649 5654 5659 5664 5668 5672 5674 5677 5681 5684 5687 5687 5693
5750 5739 5730 5719 5709 5698 5687 5676 5670 5663 5657 5653 5650 5648 5644 5640 5639 5635 5632 5630 5627 5622 5621 5620 5621 5620 5620 5622 5624 5629 5633 5636 5641 5645 5650 5655 5659 5662 5665 5668 5670 5673 5678 5681 5682 5685 5690
5746 5738 5728 5717 5708 5697 5685 5676 5667 5662 5655 5651 5649 5648 5646 5642 5640 5638 5636 5634 5631 5630 5628 5626 5626 5627 5628 5629 5631 5631 5634 5637 5642 5647 5652 5654 5657 5660 5662 5666 5666 5669 5672 5676 5678 5679 5681
5743 5735 5725 5716 5705 5695 5683 5673 5664 5658 5654 5649 5647 5645 5643 5642 5639 5638 5637 5636 5634 5632 5632 5631 5630 5630 5631 5632 5634 5633 5635 5639 5643 5645 5648 5652 5655 5658 5661 5663 5666 5669 5670 5671 5672 5674 5676
5739 5732 5721 5713 5703 5693 5681 5670 5662 5655 5651 5644 5642 5642 5640 5639 5638 5637 5636 5635 5634 5634 5634 5634 5633 5633 5633 5634 5635 5637 5639 5641 5642 5644 5646 5649 5652 5656 5658 5660 5663 5666 5667 5667 5669 5669 5672
5735 5727 5717 5710 5700 5690 5680 5669 5660 5652 5645 5642 5638 5637 5637 5635 5636 5635 5634 5634 5633 5634 5634 5634 5634 5634 5635 5636 5637 5638 5639 5641 5642 5643 5645 5647 5650 5652 5654 5657 5658 5660 5661 5662 5663 5666 5668
5729 5722 5713 5705 5696 5686 5676 5665 5656 5647 5642 5637 5633 5632 5632 5633 5633 5632 5632 5632 5632 5632 5632 5633 5634 5634 5634 5635 5636 5637 5638 5640 5641 5643 5645 5646 5647 5649 5651 5654 5655 5655 5657 5658 5658 5660 5664
5724 5717 5709 5700 5692 5683 5673 5662 5652 5642 5636 5633 5629 5627 5626 5627 5628 5628 5628 5628 5629 5629 5629 5630 5631 5632 5632 5633 5633 5634 5636 5637 5638 5639 5641 5643 5644 5646 5649 5650 5651 5652 5653 5654 5655 5657 5660
5719 5712 5704 5695 5687 5678 5667 5658 5647 5637 5631 5628 5625 5623 5621 5623 5624 5625 5624 5625 5625 5626 5626 5627 5628 5629 5630 5631 5631 5632 5633 5635 5636 5637 5638 5639 5640 5642 5643 5645 5646 5648 5650 5651 5654 5655 5656
5714 5707 5699 5692 5684 5672 5662 5652 5642 5632 5626 5624 5619 5617 5616 5615 5617 5619 5621 5622 5621 5622 5623 5624 5625 5626 5627 5628 5629 5629 5630 5632 5633 5634 5635 5636 5637 5637 5639 5641 5642 5644 5645 5646 5649 5651 5653
5705 5701 5694 5686 5679 5667 5657 5645 5636 5627 5620 5614 5612 5609 5609 5608 5610 5612 5616 5617 5618 5619 5620 5620 5621 5622 5623 5624 5625 5626 5627 5629 5630 5631 5632 5633 5634 5635 5636 5637 5638 5641 5641 5642 5643 5645 5647
5698 5696 5690 5682 5673 5662 5652 5640 5631 5621 5614 5609 5605 5601 5601 5602 5602 5605 5610 5611 5614 5615 5616 5617 5618 5619 5621 5621 5622 5623 5624 5625 5626 5627 5629 5630 5631 5632 5633 5633 5635 5637 5637 5637 5639 5641 5642
5690 5688 5684 5677 5667 5656 5645 5635 5624 5615 5606 5601 5598 5594 5593 5593 5593 5595 5600 5603 5605 5609 5612 5614 5615 5616 5617 5619 5619 5620 5621 5622 5623 5624 5625 5626 5627 5628 5629 5630 5633 5633 5633 5634 5635 5638 5638
5682 5679 5676 5670 5663 5651 5639 5627 5616 5607 5600 5592 5590 5587 5586 5585 5586 5586 5589 5593 5597 5602 5606 5608 5610 5612 5614 5615 5616 5618 5618 5619 5620 5621 5622 5623 5624 5626 5626 5627 5629 5630 5630 5631 5632 5633 5635
5673 5671 5667 5662 5655 5645 5632 5621 5610 5602 5595 5588 5584 5581 5582 5580 5578 5579 5579 5583 5587 5592 5597 5601 5604 5606 5607 5610 5612 5614 5614 5616 5617 5617 5618 5619 5620 5622 5622 5624 5625 5626 5626 5628 5630 5633 5631
5663 5661 5658 5655 5648 5637 5624 5612 5603 5594 5587 5582 5578 5576 5574 5571 5570 5571 5571 5575 5579 5583 5587 5594 5597 5598 5601 5604 5606 5607 5609 5610 5612 5613 5614 5615 5616 5617 5618 5619 5622 5622 5623 5625 5626 5626 5627
5653 5650 5649 5646 5641 5630 5617 5607 5597 5588 5581 5576 5570 5567 5565 5564 5562 5562 5562 5565 5570 5574 5579 5585 5589 5592 5594 5598 5601 5602 5605 5606 5608 5609 5610 5611 5612 5613 5614 5615 5615 5616 5618 5619 5620 5621 5622